EW8576 Weather Reports


Display with metric or nautical units.
time (UTC)temp
F
wind
direction
speed
MPH
gust
MPH
rain 1hr
in
rain 24hr
in
rain mn
in
humidity
%
barometer
mb
20260831204149 74 204 0.0 0.0 0.00 0.00 0.00 1 1016.3
20260831203423 74 204 0.0 0.0 0.00 0.00 0.00 1 1016.2
20260831202917 74 204 0.0 0.0 0.00 0.00 0.00 1 1016.4
20260831202411 74 204 0.0 0.0 0.00 0.00 0.00 1 1016.4
20260831201911 75 204 0.0 0.0 0.00 0.00 0.00 1 1016.5
20260831201411 75 204 0.0 0.0 0.00 0.00 0.00 1 1016.4
20260831200911 75 204 0.0 0.0 0.00 0.00 0.00 1 1016.4
20260831200636 75 204 0.0 0.0 0.00 0.00 0.00 1 1016.4
20260831195911 75 204 0.0 2.0 0.00 0.00 0.00 1 1016.4
20260831195411 75 204 0.0 2.0 0.00 0.00 0.00 1 1016.4
20260831195127 75 204 0.0 0.0 0.00 0.00 0.00 1 1016.5
20260831194411 75 204 0.0 0.0 0.00 0.00 0.00 1 1016.6
20260831193909 75 204 0.0 0.0 0.00 0.00 0.00 1 1016.7
20260831193628 75 204 0.0 1.0 0.00 0.00 0.00 1 1016.8
20260831192905 75 204 0.0 1.0 0.00 0.00 0.00 1 1016.9
20260831192403 76 204 0.0 1.0 0.00 0.00 0.00 1 1016.9
20260831191901 76 204 0.0 0.0 0.00 0.00 0.00 1 1016.9
20260831191359 75 204 0.0 2.0 0.00 0.00 0.00 1 1016.9
20260831190859 75 204 1.0 5.0 0.00 0.00 0.00 1 1017.0
20260831190359 75 204 1.0 5.0 0.00 0.00 0.00 1 1017.0
20260831185859 75 98 0.0 3.0 0.00 0.00 0.00 1 1017.0
20260831185352 75 98 0.0 4.0 0.00 0.00 0.00 1 1017.1
20260831184853 75 98 1.0 5.0 0.00 0.00 0.00 1 1017.1
20260831184353 75 98 1.0 5.0 0.00 0.00 0.00 1 1017.2
20260831183853 75 96 1.0 4.0 0.00 0.00 0.00 1 1017.3
20260831183351 75 96 1.0 4.0 0.00 0.00 0.00 1 1017.4
20260831182851 75 94 1.0 4.0 0.00 0.00 0.00 1 1017.3
20260831182351 75 93 0.0 0.0 0.00 0.00 0.00 1 1017.4
20260831181849 75 93 0.0 0.0 0.00 0.00 0.00 1 1017.5
20260831181348 75 89 0.0 0.0 0.00 0.00 0.00 1 1017.5
20260831180849 75 90 0.0 4.0 0.00 0.00 0.00 1 1017.5
20260831180349 75 90 1.0 4.0 0.00 0.00 0.00 1 1017.4
20260831175849 75 88 0.0 4.0 0.00 0.00 0.00 1 1017.5
20260831175349 75 88 0.0 1.0 0.00 0.00 0.00 1 1017.5
20260831174849 75 88 0.0 2.0 0.00 0.00 0.00 1 1017.7
20260831174347 75 88 0.0 2.0 0.00 0.00 0.00 1 1017.8
20260831173844 75 88 0.0 0.0 0.00 0.00 0.00 1 1017.8
20260831173346 75 88 0.0 0.0 0.00 0.00 0.00 1 1018.0
20260831172843 75 88 0.0 0.0 0.00 0.00 0.00 1 1018.0
20260831172343 74 88 0.0 0.0 0.00 0.00 0.00 1 1017.9
20260831171843 74 88 0.0 2.0 0.00 0.00 0.00 1 1018.0
20260831171343 75 88 0.0 2.0 0.00 0.00 0.00 1 1018.4
20260831170842 75 88 0.0 2.0 0.00 0.00 0.00 1 1018.2
20260831170343 75 88 0.0 2.0 0.00 0.00 0.00 1 1018.2
20260831170109 75 88 0.0 2.0 0.00 0.00 0.00 1 1018.0
20260831165602 75 88 0.0 2.0 0.00 0.00 0.00 1 1017.9
20260831164839 75 88 0.0 2.0 0.00 0.00 0.00 1 1017.9
20260831164338 75 88 1.0 2.0 0.00 0.00 0.00 1 1017.9
20260831163837 75 88 1.0 4.0 0.00 0.00 0.00 1 1017.9
20260831163337 75 88 0.0 4.0 0.00 0.00 0.00 1 1017.9
20260831162836 76 88 0.0 2.0 0.00 0.00 0.00 1 1018.0
20260831162336 75 88 0.0 2.0 0.00 0.00 0.00 1 1018.1
20260831161837 75 88 1.0 5.0 0.00 0.00 0.00 1 1018.1
20260831161337 75 88 1.0 5.0 0.00 0.00 0.00 1 1018.1
20260831160837 75 86 0.0 0.0 0.00 0.00 0.00 1 1018.1
20260831160337 75 86 0.0 0.0 0.00 0.00 0.00 1 1018.2
20260831155832 75 86 0.0 2.0 0.00 0.00 0.00 1 1018.4
20260831155332 75 86 0.0 2.0 0.00 0.00 0.00 1 1018.5
20260831154833 75 86 1.0 4.0 0.00 0.00 0.00 1 1018.4
20260831154333 75 86 1.0 4.0 0.00 0.00 0.00 1 1018.2
20260831153833 75 86 0.0 4.0 0.00 0.00 0.00 1 1018.2
20260831153333 75 86 1.0 4.0 0.00 0.00 0.00 1 1018.4
20260831152833 75 86 1.0 4.0 0.00 0.00 0.00 1 1018.5
20260831152333 75 86 1.0 4.0 0.00 0.00 0.00 1 1018.5
20260831151834 75 85 1.0 4.0 0.00 0.00 0.00 1 1018.6
20260831151333 75 86 1.0 6.0 0.00 0.00 0.00 1 1018.7
20260831150832 75 86 1.0 6.0 0.00 0.00 0.00 1 1018.7
20260831150820 75 88 1.0 6.0 0.00 0.00 0.00 1 1018.7
20260831145832 76 86 0.0 6.0 0.00 0.00 0.00 1 1018.7
20260831145555 75 88 0.0 3.0 0.00 0.00 0.00 1 1018.6
20260831144832 75 88 1.0 4.0 0.00 0.00 0.00 1 1018.4
20260831144332 75 88 1.0 4.0 0.00 0.00 0.00 1 1018.4
20260831143833 74 88 1.0 6.0 0.00 0.00 0.00 1 1018.5
20260831143333 74 88 2.0 6.0 0.00 0.00 0.00 1 1018.5
20260831142832 74 90 1.0 5.0 0.00 0.00 0.00 1 1018.6
20260831142333 73 91 1.0 5.0 0.00 0.00 0.00 1 1018.6
20260831141832 73 91 1.0 5.0 0.00 0.00 0.00 1 1018.7
20260831141332 74 88 2.0 4.0 0.00 0.00 0.00 1 1018.7
20260831141054 74 82 3.0 5.0 0.00 0.00 0.00 1 1018.6
20260831140332 73 78 3.0 5.0 0.00 0.00 0.00 1 1018.5
20260831135832 73 76 2.0 5.0 0.00 0.00 0.00 1 1018.5
20260831135332 72 61 3.0 7.0 0.00 0.00 0.00 1 1018.5
20260831134831 72 65 4.0 7.0 0.00 0.00 0.00 1 1018.5
20260831134814 72 52 2.0 7.0 0.00 0.00 0.00 1 1018.4
20260831133825 72 51 2.0 6.0 0.00 0.00 0.00 1 1018.2
20260831133324 72 51 1.0 5.0 0.00 0.00 0.00 1 1018.1
20260831132822 72 50 1.0 5.0 0.00 0.00 0.00 1 1018.4
20260831132322 71 49 1.0 4.0 0.00 0.00 0.00 1 1018.5
20260831131820 71 49 1.0 5.0 0.00 0.00 0.00 1 1018.5
20260831131320 71 49 3.0 6.0 0.00 0.00 0.00 1 1018.6
20260831130821 70 49 4.0 7.0 0.00 0.00 0.00 1 1018.5
20260831130318 69 44 5.0 7.0 0.00 0.00 0.00 1 1018.6
20260831125816 69 51 5.0 8.0 0.00 0.00 0.00 1 1018.6
20260831125314 69 55 4.0 8.0 0.00 0.00 0.00 1 1018.7
20260831124814 68 65 2.0 6.0 0.00 0.00 0.00 1 1018.6
20260831124315 67 67 1.0 4.0 0.00 0.00 0.00 1 1018.7
20260831123810 67 67 1.0 3.0 0.00 0.00 0.00 1 1018.8
20260831123311 66 67 0.0 2.0 0.00 0.00 0.00 1 1018.7
20260831122809 66 67 0.0 2.0 0.00 0.00 0.00 1 1018.6
20260831122538 66 67 0.0 0.0 0.00 0.00 0.00 1 1018.5
20260831121808 65 67 0.0 0.0 0.00 0.00 0.00 1 1018.6
20260831121302 65 67 0.0 0.0 0.00 0.00 0.00 1 1018.6
20260831120756 64 67 0.0 0.0 0.00 0.00 0.00 1 1018.7
20260831120250 64 67 0.0 0.0 0.00 0.00 0.00 1 1018.7
20260831115743 64 67 0.0 0.0 0.00 0.00 0.00 1 1018.7
20260831115238 63 67 0.0 0.0 0.00 0.00 0.00 1 1018.6
20260831114732 63 67 0.0 0.0 0.00 0.00 0.00 1 1018.5
20260831114226 63 67 0.0 0.0 0.00 0.00 0.00 1 1018.5
20260831113944 63 67 0.0 0.0 0.00 0.00 0.00 1 1018.7
20260831113436 62 67 0.0 0.0 0.00 0.00 0.00 1 1018.6
20260831112709 62 67 0.0 0.0 0.00 0.00 0.00 1 1018.5
20260831112420 62 67 0.0 0.0 0.00 0.00 0.00 1 1018.5
20260831111656 62 67 0.0 0.0 0.00 0.00 0.00 1 1018.5
20260831111149 62 67 0.0 0.0 0.00 0.00 0.00 1 1018.5
20260831110643 62 67 0.0 0.0 0.00 0.00 0.00 1 1018.5
20260831110138 62 67 0.0 0.0 0.00 0.00 0.00 1 1018.4
20260831105631 62 67 0.0 0.0 0.00 0.00 0.00 1 1018.2
20260831105126 62 67 0.0 0.0 0.00 0.00 0.00 1 1018.2
20260831104620 62 67 0.0 0.0 0.00 0.00 0.00 1 1018.1
20260831104114 62 67 0.0 0.0 0.00 0.00 0.00 1 1017.9
20260831103607 62 67 0.0 0.0 0.00 0.00 0.00 1 1017.9
20260831103101 62 67 0.0 0.0 0.00 0.00 0.00 1 1017.9
20260831102822 62 67 0.0 0.0 0.00 0.00 0.00 1 1017.8
20260831102050 62 67 0.0 0.0 0.00 0.00 0.00 1 1017.9
20260831101544 62 67 0.0 0.0 0.00 0.00 0.00 1 1017.8
20260831101038 62 67 0.0 0.0 0.00 0.00 0.00 1 1017.8
20260831100754 62 67 0.0 0.0 0.00 0.00 0.00 1 1017.7
20260831100025 62 67 0.0 0.0 0.00 0.00 0.00 1 1017.7
20260831095520 62 67 0.0 0.0 0.00 0.00 0.00 1 1017.6
20260831095455 62 67 0.0 0.0 0.00 0.00 0.00 1 1017.7
20260831094507 62 67 0.0 0.0 0.00 0.00 0.00 1 1017.6
20260831094002 62 67 0.0 0.0 0.00 0.00 0.00 1 1017.6
20260831093718 62 67 0.0 0.0 0.00 0.00 0.00 1 1017.7
20260831093216 62 67 0.0 0.0 0.00 0.00 0.00 1 1017.6
20260831092444 62 67 0.0 0.0 0.00 0.00 0.00 1 1017.6
20260831091938 62 67 0.0 0.0 0.00 0.00 0.00 1 1017.7
20260831091432 62 67 0.0 0.0 0.00 0.00 0.00 1 1017.6
20260831090926 62 67 0.0 0.0 0.00 0.00 0.00 1 1017.6
20260831090419 62 67 0.0 0.0 0.00 0.00 0.00 1 1017.6
20260831085914 62 67 0.0 0.0 0.00 0.00 0.00 1 1017.6
20260831085407 62 67 0.0 0.0 0.00 0.00 0.00 1 1017.7
20260831085124 62 67 0.0 0.0 0.00 0.00 0.00 1 1017.6
20260831084356 62 67 0.0 0.0 0.00 0.00 0.00 1 1017.6
20260831083850 62 67 0.0 0.0 0.00 0.00 0.00 1 1017.5
20260831083343 62 67 0.0 0.0 0.00 0.00 0.00 1 1017.5
20260831082838 62 67 0.0 0.0 0.00 0.00 0.00 1 1017.4
20260831082601 62 67 0.0 0.0 0.00 0.00 0.00 1 1017.2
20260831081827 62 67 0.0 0.0 0.00 0.00 0.00 1 1017.2
20260831081319 62 67 0.0 0.0 0.00 0.00 0.00 1 1017.2
20260831081036 62 67 0.0 0.0 0.00 0.00 0.00 1 1017.3
20260831080308 62 67 0.0 0.0 0.00 0.00 0.00 1 1017.4
20260831080019 62 67 0.0 0.0 0.00 0.00 0.00 1 1017.3
20260831075256 62 67 0.0 0.0 0.00 0.00 0.00 1 1017.4
20260831075234 62 67 0.0 0.0 0.00 0.00 0.00 1 1017.5
20260831074244 63 67 0.0 0.0 0.00 0.00 0.00 1 1017.3
20260831073738 63 67 0.0 0.0 0.00 0.00 0.00 1 1017.3
20260831073455 63 67 0.0 0.0 0.00 0.00 0.00 1 1017.2
20260831072726 63 67 0.0 0.0 0.00 0.00 0.00 1 1017.1
20260831072219 63 67 0.0 0.0 0.00 0.00 0.00 1 1017.1
20260831071714 63 67 0.0 0.0 0.00 0.00 0.00 1 1017.2
20260831071208 63 67 0.0 0.0 0.00 0.00 0.00 1 1017.3
20260831070702 63 67 0.0 0.0 0.00 0.00 0.00 1 1017.3
20260831070156 64 67 0.0 0.0 0.00 0.00 0.00 1 1017.4
20260831065651 64 67 0.0 0.0 0.00 0.00 0.00 1 1017.3
20260831065144 64 67 0.0 0.0 0.00 0.00 0.00 1 1017.1
20260831064637 64 67 1.0 5.0 0.00 0.00 0.00 1 1017.1
20260831064132 64 67 1.0 5.0 0.00 0.00 0.00 1 1017.1
20260831063626 64 67 0.0 5.0 0.00 0.00 0.00 1 1016.9
20260831063126 64 65 0.0 0.0 0.00 0.00 0.00 1 1017.0
20260831062624 65 65 0.0 0.0 0.00 0.00 0.00 1 1016.9
20260831062353 65 66 0.0 0.0 0.00 0.00 0.00 1 1017.0
20260831061624 65 65 0.0 0.0 0.00 0.00 0.00 1 1017.0
20260831061123 66 65 0.0 0.0 0.00 0.00 0.00 1 1016.9
20260831060619 66 66 0.0 0.0 0.00 0.00 0.00 1 1016.9
20260831060120 66 66 0.0 0.0 0.00 0.00 0.00 1 1016.9
20260831055621 67 65 0.0 0.0 0.00 0.00 0.00 1 1016.9
20260831055120 67 66 0.0 0.0 0.00 0.00 0.00 1 1016.8
20260831054620 67 66 0.0 0.0 0.00 0.00 0.00 1 1016.7
20260831054120 68 65 0.0 0.0 0.00 0.00 0.00 1 1016.8
20260831053620 68 65 0.0 0.0 0.00 0.00 0.00 1 1016.8
20260831053118 68 65 0.0 0.0 0.00 0.00 0.00 1 1017.0
20260831052618 68 66 0.0 0.0 0.00 0.00 0.00 1 1017.0
20260831052118 68 65 0.0 0.0 0.00 0.00 0.00 1 1016.9
20260831051616 68 66 0.0 0.0 0.00 0.00 0.00 1 1017.0
20260831051338 68 66 0.0 0.0 0.00 0.00 0.00 1 1017.0
20260831051051 68 66 0.0 0.0 0.00 0.00 0.00 1 1016.9
20260831050116 68 66 0.0 0.0 0.00 0.00 0.00 1 1016.8
20260831045833 67 66 0.0 0.0 0.00 0.00 0.00 1 1016.8
20260831045338 67 66 1.0 5.0 0.00 0.00 0.00 1 1016.8
20260831044612 67 66 1.0 5.0 0.00 0.00 0.00 1 1016.8
20260831044112 67 267 0.0 0.0 0.00 0.00 0.00 1 1016.9
20260831043610 67 267 0.0 0.0 0.00 0.00 0.00 1 1017.1
20260831043110 67 267 0.0 0.0 0.00 0.00 0.00 1 1017.0
20260831042610 67 267 0.0 0.0 0.00 0.00 0.00 1 1017.0
20260831042108 67 267 0.0 0.0 0.00 0.00 0.00 1 1017.0
20260831041608 68 267 0.0 0.0 0.00 0.00 0.00 1 1016.9
20260831041108 68 267 0.0 0.0 0.00 0.00 0.00 1 1017.0
20260831040606 68 267 0.0 0.0 0.00 0.00 0.00 1 1017.0
20260831040105 68 267 0.0 0.0 0.00 0.00 0.00 1 1016.9
20260831035607 68 267 0.0 0.0 0.00 0.00 0.00 1 1016.8
20260831035106 69 267 0.0 0.0 0.00 0.00 0.00 1 1016.8
20260831034606 69 267 0.0 0.0 0.00 0.00 0.00 1 1016.7
20260831034059 69 267 0.0 0.0 0.00 0.00 0.00 1 1016.7
20260831033554 69 267 0.0 0.0 0.00 0.00 0.00 1 1016.7
20260831033053 70 267 0.0 0.0 0.00 0.00 0.00 1 1016.5
20260831032554 70 267 0.0 0.0 0.00 0.00 0.00 1 1016.6
20260831032054 70 267 0.0 0.0 0.00 0.00 0.00 1 1016.7
20260831031554 70 267 0.0 0.0 0.00 0.00 0.00 1 1016.8
20260831031054 70 267 0.0 0.0 0.00 0.00 0.00 1 1016.8
20260831030554 71 267 0.0 0.0 0.00 0.00 0.00 1 1016.8
20260831030052 71 267 0.0 0.0 0.00 0.00 0.00 1 1016.9
20260831025819 71 267 0.0 0.0 0.00 0.00 0.00 1 1016.9
20260831025048 71 267 0.0 0.0 0.00 0.00 0.00 1 1017.0
20260831024547 71 267 0.0 0.0 0.00 0.00 0.00 1 1017.0
20260831024048 71 267 0.0 0.0 0.00 0.00 0.00 1 1017.0
20260831023548 71 267 0.0 0.0 0.00 0.00 0.00 1 1017.0
20260831023044 71 267 0.0 0.0 0.00 0.00 0.00 1 1017.0
20260831022544 72 267 0.0 0.0 0.00 0.00 0.00 1 1016.9
20260831022043 72 267 0.0 0.0 0.00 0.00 0.00 1 1016.8
20260831021803 72 267 0.0 1.0 0.00 0.00 0.00 1 1016.8
20260831021044 72 267 1.0 2.0 0.00 0.00 0.00 1 1016.8
20260831020543 72 267 1.0 7.0 0.00 0.00 0.00 1 1016.7
20260831020044 72 267 2.0 7.0 0.00 0.00 0.00 1 1016.8
20260831015545 72 274 2.0 6.0 0.00 0.00 0.00 1 1016.8
20260831015044 72 269 1.0 5.0 0.00 0.00 0.00 1 1016.7
20260831014539 72 269 1.0 5.0 0.00 0.00 0.00 1 1016.6
20260831014257 72 269 2.0 5.0 0.00 0.00 0.00 1 1016.4
20260831013539 72 271 1.0 5.0 0.00 0.00 0.00 1 1016.5
20260831013039 73 268 1.0 4.0 0.00 0.00 0.00 1 1016.5
20260831012803 73 268 1.0 7.0 0.00 0.00 0.00 1 1016.4
20260831012040 73 267 1.0 7.0 0.00 0.00 0.00 1 1016.4
20260831011540 72 302 1.0 4.0 0.00 0.00 0.00 1 1016.3
20260831011040 71 316 1.0 4.0 0.00 0.00 0.00 1 1016.3
20260831010540 71 61 0.0 4.0 0.00 0.00 0.00 1 1016.2
20260831010039 71 61 0.0 1.0 0.00 0.00 0.00 1 1016.2
20260831005757 71 61 0.0 1.0 0.00 0.00 0.00 1 1016.2
20260831005040 71 61 0.0 1.0 0.00 0.00 0.00 1 1016.2
20260831004540 72 61 0.0 1.0 0.00 0.00 0.00 1 1016.1
20260831004039 72 61 0.0 0.0 0.00 0.00 0.00 1 1016.0
20260831003539 72 61 0.0 0.0 0.00 0.00 0.00 1 1015.9
20260831003040 72 61 0.0 4.0 0.00 0.00 0.00 1 1015.8
20260831002540 72 61 0.0 4.0 0.00 0.00 0.00 1 1015.7
20260831002040 72 61 1.0 7.0 0.00 0.00 0.00 1 1015.7
20260831001801 72 60 3.0 8.0 0.00 0.00 0.00 1 1015.6
20260831001305 72 61 2.0 8.0 0.00 0.00 0.00 1 1015.7
20260831000540 72 246 0.0 5.0 0.00 0.00 0.00 1 1015.6
20260831000038 72 246 0.0 2.0 0.00 0.00 0.00 1 1015.5
20260830235753 72 246 0.0 2.0 0.00 0.00 0.00 1 1015.4
20260830235032 72 246 0.0 1.0 0.00 0.00 0.00 1 1015.3
20260830234532 72 246 0.0 1.0 0.00 0.00 0.00 1 1015.2
20260830234031 72 246 0.0 0.0 0.00 0.00 0.00 1 1015.2
20260830233529 72 246 0.0 0.0 0.00 0.00 0.00 1 1015.2
20260830233253 72 246 0.0 0.0 0.00 0.00 0.00 1 1015.2
20260830232527 73 246 0.0 0.0 0.00 0.00 0.00 1 1015.2
20260830232027 73 246 0.0 0.0 0.00 0.00 0.00 1 1015.2
20260830231523 73 246 0.0 0.0 0.00 0.00 0.00 1 1015.1
20260830231021 73 246 0.0 0.0 0.00 0.00 0.00 1 1015.1
20260830230521 73 246 0.0 0.0 0.00 0.00 0.00 1 1015.0
20260830230022 73 246 0.0 0.0 0.00 0.00 0.00 1 1015.1
20260830225743 73 246 0.0 0.0 0.00 0.00 0.00 1 1015.1
20260830225019 74 246 0.0 0.0 0.00 0.00 0.00 1 1015.3
20260830224741 74 246 0.0 0.0 0.00 0.00 0.00 1 1015.4
20260830224016 74 246 0.0 0.0 0.00 0.00 0.00 1 1015.3
20260830223516 74 246 0.0 1.0 0.00 0.00 0.00 1 1015.3
20260830223014 74 246 0.0 1.0 0.00 0.00 0.00 1 1015.2
20260830222513 75 246 0.0 4.0 0.00 0.00 0.00 1 1015.3
20260830222237 75 246 0.0 4.0 0.00 0.00 0.00 1 1015.2
20260830221513 75 246 0.0 5.0 0.00 0.00 0.00 1 1015.4
20260830221013 75 246 0.0 5.0 0.00 0.00 0.00 1 1015.4
20260830220513 75 246 0.0 0.0 0.00 0.00 0.00 1 1015.3
20260830220013 75 246 0.0 0.0 0.00 0.00 0.00 1 1015.1
20260830215512 75 246 0.0 0.0 0.00 0.00 0.00 1 1015.0
20260830215234 75 249 1.0 7.0 0.00 0.00 0.00 1 1015.0
20260830214512 75 250 2.0 7.0 0.00 0.00 0.00 1 1015.0
20260830214321 75 252 2.0 7.0 0.00 0.00 0.00 1 1014.9
20260830214216 75 255 2.0 6.0 0.00 0.00 0.00 1 1014.9
20260830213003 75 257 2.0 8.0 0.00 0.00 0.00 1 1015.0
20260830212457 75 263 2.0 8.0 0.00 0.00 0.00 1 1014.9
20260830211951 76 259 2.0 5.0 0.00 0.00 0.00 1 1014.9
20260830211445 76 259 2.0 8.0 0.00 0.00 0.00 1 1015.1
20260830210939 76 261 2.0 8.0 0.00 0.00 0.00 1 1015.0
20260830210433 76 206 2.0 7.0 0.00 0.00 0.00 1 1015.0
20260830210155 76 250 2.0 7.0 0.00 0.00 0.00 1 1015.1
20260830205421 76 242 2.0 7.0 0.00 0.00 0.00 1 1015.1
20260830204915 76 241 3.0 7.0 0.00 0.00 0.00 1 1015.1
20260830204408 76 257 2.0 8.0 0.00 0.00 0.00 1 1015.2